TimeCST,TemperatureF,Dew PointF,Humidity,Sea Level PressureIn,VisibilityMPH,Wind Direction,Wind SpeedMPH,Gust SpeedMPH,PrecipitationIn,Events,Conditions,WindDirDegrees,DateUTC
12:53 AM,37.9,36.0,93,29.89,4.0,East,3.5,-,N/A,,Overcast,100,2012-12-09 06:53:00
1:53 AM,39.0,37.0,93,29.88,4.0,East,3.5,-,N/A,,Overcast,90,2012-12-09 07:53:00
2:53 AM,39.0,37.0,93,29.89,3.0,Calm,Calm,-,N/A,,Overcast,0,2012-12-09 08:53:00
3:02 AM,39.2,37.4,93,29.88,2.5,Calm,Calm,-,N/A,,Overcast,0,2012-12-09 09:02:00
3:23 AM,37.4,37.4,100,29.87,1.8,Calm,Calm,-,N/A,,Overcast,0,2012-12-09 09:23:00
3:30 AM,37.4,37.4,100,29.87,1.5,Calm,Calm,-,N/A,,Overcast,0,2012-12-09 09:30:00
3:53 AM,37.9,37.0,97,29.86,1.5,NNE,3.5,-,0.00,,Overcast,20,2012-12-09 09:53:00
4:42 AM,39.2,37.4,93,29.84,2.0,Calm,Calm,-,N/A,,Overcast,0,2012-12-09 10:42:00
4:53 AM,39.0,37.0,93,29.85,2.0,Calm,Calm,-,N/A,,Overcast,0,2012-12-09 10:53:00
5:13 AM,39.2,37.4,93,29.85,3.0,Calm,Calm,-,N/A,,Overcast,0,2012-12-09 11:13:00
5:53 AM,39.0,37.0,93,29.88,3.0,Calm,Calm,-,N/A,,Overcast,0,2012-12-09 11:53:00
6:39 AM,39.2,37.4,93,29.89,3.0,NW,3.5,-,N/A,,Overcast,310,2012-12-09 12:39:00
6:46 AM,39.2,37.4,93,29.89,2.5,Calm,Calm,-,0.01,Rain,Light Rain,0,2012-12-09 12:46:00
6:53 AM,39.0,37.0,93,29.91,2.5,NW,3.5,-,0.01,Rain,Light Rain,310,2012-12-09 12:53:00
7:05 AM,39.2,37.4,93,29.89,2.5,Calm,Calm,-,0.00,Rain,Light Rain,0,2012-12-09 13:05:00
7:37 AM,39.2,37.4,93,29.89,3.0,Calm,Calm,-,0.00,,Overcast,0,2012-12-09 13:37:00
7:53 AM,39.0,37.0,93,29.91,3.0,Calm,Calm,-,0.00,,Overcast,0,2012-12-09 13:53:00
8:04 AM,39.2,37.4,93,29.89,2.5,Calm,Calm,-,N/A,,Overcast,0,2012-12-09 14:04:00
8:15 AM,39.2,37.4,93,29.89,3.0,Calm,Calm,-,N/A,,Overcast,0,2012-12-09 14:15:00
8:53 AM,39.0,37.0,93,29.91,3.0,West,5.8,-,N/A,,Overcast,280,2012-12-09 14:53:00
9:51 AM,39.2,37.4,93,29.91,5.0,WNW,8.1,-,N/A,,Overcast,290,2012-12-09 15:51:00
9:53 AM,39.9,37.0,89,29.93,5.0,WNW,6.9,-,N/A,,Overcast,290,2012-12-09 15:53:00
10:43 AM,41.0,35.6,81,29.92,6.0,NW,15.0,25.3,N/A,,Haze,320,2012-12-09 16:43:00
10:53 AM,41.0,34.0,76,29.94,7.0,NW,17.3,25.3,N/A,,Overcast,320,2012-12-09 16:53:00
11:53 AM,42.1,33.1,70,29.92,10.0,WNW,17.3,26.5,N/A,,Mostly Cloudy,300,2012-12-09 17:53:00
12:22 PM,39.2,30.2,70,29.92,10.0,NW,20.7,-,N/A,,Scattered Clouds,310,2012-12-09 18:22:00
12:53 PM,39.0,27.0,62,29.95,10.0,NW,20.7,-,N/A,,Clear,320,2012-12-09 18:53:00
1:53 PM,37.0,21.9,54,29.97,10.0,NW,24.2,-,N/A,,Clear,320,2012-12-09 19:53:00
2:53 PM,33.1,18.0,54,29.99,10.0,NW,19.6,-,N/A,,Clear,310,2012-12-09 20:53:00
3:53 PM,30.0,14.0,51,30.02,10.0,NW,24.2,28.8,N/A,,Clear,310,2012-12-09 21:53:00
4:53 PM,28.0,12.9,53,30.03,10.0,NW,11.5,25.3,N/A,,Clear,320,2012-12-09 22:53:00
5:53 PM,26.1,12.9,58,30.06,10.0,NW,19.6,26.5,N/A,,Clear,310,2012-12-09 23:53:00
6:43 PM,24.8,12.2,59,30.06,10.0,NW,19.6,27.6,N/A,,Overcast,320,2012-12-10 00:43:00
6:53 PM,25.0,12.0,58,30.09,10.0,NW,19.6,28.8,N/A,,Overcast,320,2012-12-10 00:53:00
7:07 PM,24.8,10.4,54,30.07,10.0,NW,24.2,31.1,N/A,,Overcast,310,2012-12-10 01:07:00
7:53 PM,23.0,10.0,58,30.11,10.0,NW,20.7,27.6,N/A,,Overcast,310,2012-12-10 01:53:00
8:53 PM,21.0,9.0,60,30.10,10.0,NNW,16.1,26.5,N/A,,Partly Cloudy,330,2012-12-10 02:53:00
9:53 PM,21.0,9.0,60,30.12,10.0,NW,16.1,-,N/A,,Overcast,310,2012-12-10 03:53:00
10:53 PM,21.0,9.0,60,30.12,10.0,NW,18.4,-,N/A,,Overcast,310,2012-12-10 04:53:00
11:53 PM,19.9,9.0,62,30.12,10.0,NW,20.7,26.5,N/A,,Overcast,320,2012-12-10 05:53:00